Terminal Aerodrome Forecast
Issued by NWS

Home | Current Version | Previous Version | Text Only | Print | Product List | Glossary On
Versions: 1 2 3 4 5 6 7 8 9 10 11 12
000
FTUS46 KPDT 282320
TAFRDM
TAF
KRDM 282320Z 2900/2924 35011KT P6SM FEW140 SCT250
     FM290700 16004KT P6SM FEW250
     FM291900 32008G15KT P6SM SKC=

USA.gov is the U.S. government's official web portal to all federal, state and local government web resources and services.